Flag for Germany Weather past 2 weeks in Cuxhaven, Lower Saxony, Germany

Now
61 °F

Passing clouds.


Feels Like: 61 °F
Forecast: 62 / 75 °F
Wind: 10 mph from Southeast

Location: Nordholz

Current Time: Aug 3, 2015 at 8:57:43 AM

Latest Report: Aug 3, 2015 at 8:20 AM


Visibility: N/A

Pressure: 30.04 "Hg

Humidity: 72%

Dew point: 52 °F

Location of CuxhavenLocation

Historic Weather in Cuxhaven — Graph

°F

Cuxhaven temperature yesterday

Maximum temperature yesterday: 70 °F (at 2:20 PM)
Minimum temperature yesterday: 50 °F (at 4:20 AM)
Average temperature yesterday: 61 °F

Past Weeks' High & Low Weather Summary

 TemperatureHumidityPressure
High73 °F (Jul 22, 1:20 PM)100% (Jul 19, 7:01 PM)30.15 "Hg (Jul 19, 7:01 PM)
Low45 °F (Aug 1, 5:20 AM)46% (Aug 1, 2:20 PM)29.42 "Hg (Jul 25, 11:58 AM)
Average60 °F80%29.81 "Hg
* Reported Jul 19 7:20 AM — Aug 3 7:20 AM, Cuxhaven, Weather by CustomWeather, © 2015

Note: Actual official high and low records may vary slightly from our data, if they occured in-between our weather recording intervals... More about our weather records

Advertising

Cuxhaven weather history for previous 24 hours

 ConditionsComfort  
Time TempWeatherWind HumidityBarometerVisibility
7:20 AM
Mon, Aug 3
57 °FPassing clouds.7 mph77%30.07 "HgN/A
6:20 AM54 °FPassing clouds.7 mph82%30.07 "HgN/A
5:20 AM54 °FPassing clouds.7 mph88%30.07 "HgN/A
4:20 AM55 °FPassing clouds.7 mph82%30.09 "HgN/A
3:20 AM55 °FPassing clouds.7 mph82%30.09 "HgN/A
2:20 AM55 °FPassing clouds.6 mph82%30.12 "HgN/A
1:20 AM57 °FPassing clouds.7 mph77%30.12 "HgN/A
12:20 AM57 °FPassing clouds.6 mph82%30.12 "HgN/A
11:20 PM
Sun, Aug 2
59 °FPassing clouds.5 mph82%30.12 "HgN/A
10:20 PM61 °FScattered clouds.6 mph77%30.12 "HgN/A
9:20 PM63 °FPartly sunny.5 mph73%30.12 "HgN/A
8:20 PM64 °FPartly sunny.6 mph68%30.12 "HgN/A
7:20 PM66 °FPartly sunny.9 mph64%30.12 "HgN/A
6:20 PM70 °FPartly sunny.5 mph53%30.15 "HgN/A
5:20 PM70 °FPartly sunny.6 mph50%30.15 "HgN/A
4:20 PM70 °FPartly sunny.6 mph50%30.15 "HgN/A
3:20 PM70 °FPartly sunny.8 mph46%30.15 "HgN/A
2:20 PM70 °FPartly sunny.6 mph46%30.15 "HgN/A
1:20 PM68 °FPartly sunny.6 mph46%30.15 "HgN/A
12:20 PM68 °FPartly sunny.7 mph49%30.15 "HgN/A
11:20 AM66 °FPartly sunny.8 mph56%30.15 "HgN/A
10:20 AM66 °FPartly sunny.9 mph56%30.12 "HgN/A
9:20 AM64 °FScattered clouds.9 mph60%30.12 "HgN/A
8:20 AM61 °FScattered clouds.6 mph88%30.12 "HgN/A
Weather by CustomWeather, © 2015

See weather overviewHow to use our weather pages